Location: Carri�res
(48.9069°N, 2.1792°E)
Time: 11:36:47
(UTC+00:00)

deb Kosmos- 1898 - Pass Details

Date: 01 August 2021
Orbit: 731 x 754 km, 74.0° (Epoch: 18 September)

Event Time Altitude Azimuth Distance (km) Brightness Sun altitude
Exits shadow 02:14:21 28° 202° (SSW) 1,385 ? -16.5°
Maximum altitude 02:17:09 90° 335° (NNW) 753 ? -16.3°
Drops below altitude 10° 02:22:20 10° 23° (NNE) 2,280 ? -15.8°
Sets 02:24:42 0° 24° (NNE) 3,212 ? -15.6°
